CW1020 Weather Reports


time (UTC)temp
F
wind
direction
speed
knots
gust
knots
rain 1hr
in
rain 24hr
in
rain mn
in
humidity
%
barometer
mb
20260903063503 59 298 0.0 0.9 0.00 0.00 0.00 57 1018.9
20260903063003 59 0 0.0 0.0 0.00 0.00 0.00 57 1018.9
20260903062503 59 0 0.0 0.0 0.00 0.00 0.00 57 1019.0
20260903062003 59 0 0.0 0.0 0.00 0.00 0.00 57 1019.0
20260903061503 59 297 0.0 0.9 0.00 0.00 0.00 57 1019.1
20260903061003 59 297 0.0 0.9 0.00 0.00 0.00 55 1018.9
20260903060502 60 297 0.0 0.9 0.00 0.00 0.00 55 1018.8
20260903055502 60 0 0.9 0.0 0.00 0.00 0.00 53 1019.0
20260903054503 60 123 0.0 2.6 0.00 0.00 0.00 54 1018.9
20260903054003 60 162 0.0 1.7 0.00 0.00 0.00 53 1019.0
20260903053503 60 168 0.0 0.9 0.00 0.00 0.00 53 1019.0
20260903053002 60 0 0.0 0.0 0.00 0.00 0.00 52 1019.0
20260903052503 61 168 0.0 0.9 0.00 0.00 0.00 52 1019.0
20260903052003 61 0 0.0 0.0 0.00 0.00 0.00 52 1019.0
20260903050503 61 139 1.7 5.2 0.00 0.00 0.00 53 1019.1
20260903050003 61 150 0.9 6.1 0.00 0.00 0.00 52 1019.1
20260903045503 61 177 0.9 2.6 0.00 0.00 0.00 52 1019.1
20260903045003 61 177 1.7 6.1 0.00 0.00 0.00 52 1019.0
20260903044003 61 154 1.7 7.8 0.00 0.00 0.00 52 1018.9
20260903043004 61 150 2.6 3.5 0.00 0.00 0.00 52 1018.9
20260903042503 61 152 2.6 4.3 0.00 0.00 0.00 52 1018.8
20260903042003 61 155 0.9 5.2 0.00 0.00 0.00 53 1019.0
20260903041004 61 169 2.6 2.6 0.00 0.00 0.00 53 1019.0
20260903040003 61 146 2.6 8.7 0.00 0.00 0.00 53 1018.9
20260903035003 62 164 1.7 3.5 0.00 0.00 0.00 52 1018.8
20260903034503 62 145 2.6 3.5 0.00 0.00 0.00 52 1018.7
20260903034003 62 165 1.7 5.2 0.00 0.00 0.00 49 1018.6
20260903033503 62 155 0.0 4.3 0.00 0.00 0.00 49 1018.5
20260903033003 62 0 0.0 0.0 0.00 0.00 0.00 48 1018.6
20260903032503 62 179 0.0 0.9 0.00 0.00 0.00 47 1018.5
20260903032004 62 0 0.0 0.0 0.00 0.00 0.00 47 1018.5
20260903031503 62 0 0.0 0.0 0.00 0.00 0.00 49 1018.5
20260903031003 63 163 0.0 0.9 0.00 0.00 0.00 48 1018.3
20260903030503 63 0 0.0 0.0 0.00 0.00 0.00 48 1018.2
20260903030003 63 0 1.7 0.0 0.00 0.00 0.00 49 1018.2
20260903025503 63 153 1.7 2.6 0.00 0.00 0.00 50 1018.3
20260903025004 63 139 0.9 5.2 0.00 0.00 0.00 50 1018.3
20260903024503 64 140 0.0 1.7 0.00 0.00 0.00 46 1018.3
20260903024003 64 171 0.9 2.6 0.00 0.00 0.00 42 1018.2
20260903023503 64 182 2.6 0.9 0.00 0.00 0.00 43 1018.4
20260903023003 64 179 2.6 5.2 0.00 0.00 0.00 43 1018.4
20260903022503 64 211 4.3 4.3 0.00 0.00 0.00 43 1018.3
20260903021504 64 211 4.3 8.7 0.00 0.00 0.00 43 1018.4
20260903021003 65 206 4.3 8.7 0.00 0.00 0.00 42 1018.4
20260903020503 65 223 5.2 6.1 0.00 0.00 0.00 41 1018.4
20260903020004 65 222 6.1 7.8 0.00 0.00 0.00 41 1018.4
20260903015504 65 224 6.1 11.3 0.00 0.00 0.00 41 1018.4
20260903015003 66 226 5.2 11.3 0.00 0.00 0.00 39 1018.3
20260903014503 66 224 4.3 8.7 0.00 0.00 0.00 38 1018.4
20260903014003 67 216 5.2 7.8 0.00 0.00 0.00 38 1018.4
20260903013504 67 227 7.0 9.6 0.00 0.00 0.00 37 1018.3
20260903013003 67 221 7.0 11.3 0.00 0.00 0.00 37 1018.3
20260903012503 67 228 7.0 11.3 0.00 0.00 0.00 40 1018.4
20260903012003 67 222 7.8 10.4 0.00 0.00 0.00 41 1018.4
20260903011504 68 232 7.0 13.9 0.00 0.00 0.00 41 1018.3
20260903011004 68 217 7.0 12.2 0.00 0.00 0.00 42 1018.4
20260903010503 68 227 7.0 9.6 0.00 0.00 0.00 42 1018.4
20260903005003 68 234 9.6 11.3 0.00 0.00 0.00 42 1018.6
20260903003503 68 231 9.6 17.4 0.00 0.00 0.00 42 1018.5
20260903003003 68 215 10.4 13.0 0.00 0.00 0.00 42 1018.6
20260903002503 68 229 10.4 15.6 0.00 0.00 0.00 42 1018.6
20260903002003 68 221 9.6 14.8 0.00 0.00 0.00 42 1018.6
20260903001503 68 231 10.4 14.8 0.00 0.00 0.00 40 1018.4
20260903001003 68 230 9.6 17.4 0.00 0.00 0.00 40 1018.4
20260903000004 68 219 10.4 15.6 0.00 0.00 0.00 40 1018.5
20260902235003 69 234 10.4 13.0 0.00 0.00 0.00 38 1018.5
20260902234504 69 230 9.6 13.9 0.00 0.00 0.00 39 1018.5
20260902234003 69 233 8.7 15.6 0.00 0.00 0.00 37 1018.6
20260902233503 69 222 9.6 13.9 0.00 0.00 0.00 38 1018.7
20260902233004 68 233 10.4 14.8 0.00 0.00 0.00 38 1018.6
20260902232503 68 230 10.4 16.5 0.00 0.00 0.00 38 1018.6
20260902231503 68 225 12.2 14.8 0.00 0.00 0.00 38 1018.6
20260902231004 68 228 12.2 18.2 0.00 0.00 0.00 39 1018.7
20260902225503 68 234 12.2 17.4 0.00 0.00 0.00 41 1018.7
20260902225003 68 233 13.0 18.2 0.00 0.00 0.00 40 1018.7
20260902224503 68 233 12.2 19.1 0.00 0.00 0.00 42 1018.8
20260902224003 68 239 12.2 18.2 0.00 0.00 0.00 42 1018.8
20260902222503 68 231 12.2 19.1 0.00 0.00 0.00 42 1018.9
20260902222004 68 237 12.2 20.0 0.00 0.00 0.00 42 1019.0
20260902221503 68 230 11.3 17.4 0.00 0.00 0.00 42 1019.1
20260902220504 68 224 10.4 14.8 0.00 0.00 0.00 42 1018.9
20260902220003 68 230 10.4 14.8 0.00 0.00 0.00 43 1019.0
20260902214003 69 230 9.6 15.6 0.00 0.00 0.00 41 1019.1
20260902213004 68 206 10.4 15.6 0.00 0.00 0.00 43 1019.2
20260902212502 69 230 9.6 19.1 0.00 0.00 0.00 42 1019.1
20260902212002 69 223 9.6 13.9 0.00 0.00 0.00 42 1019.2
20260902211502 69 219 10.4 14.8 0.00 0.00 0.00 41 1019.2
20260902211002 69 223 12.2 16.5 0.00 0.00 0.00 42 1019.0
20260902210502 69 234 11.3 17.4 0.00 0.00 0.00 42 1019.1
20260902210002 70 234 10.4 15.6 0.00 0.00 0.00 42 1019.0
20260902205503 69 231 9.6 16.5 0.00 0.00 0.00 40 1019.2
20260902205002 70 236 7.0 15.6 0.00 0.00 0.00 39 1019.1
20260902204502 69 237 7.8 11.3 0.00 0.00 0.00 40 1019.2
20260902204002 69 241 8.7 13.0 0.00 0.00 0.00 41 1019.3
20260902203502 69 241 7.8 11.3 0.00 0.00 0.00 42 1019.3
20260902202002 67 245 8.7 13.0 0.00 0.00 0.00 44 1019.3
20260902201502 67 243 7.8 13.0 0.00 0.00 0.00 43 1019.3
20260902201002 67 235 7.8 12.2 0.00 0.00 0.00 44 1019.4
20260902200503 67 245 7.8 11.3 0.00 0.00 0.00 44 1019.5
20260902200002 67 239 7.8 15.6 0.00 0.00 0.00 44 1019.4
20260902195502 66 241 8.7 15.6 0.00 0.00 0.00 45 1019.7
20260902195002 66 239 7.8 12.2 0.00 0.00 0.00 45 1019.8
20260902194502 66 241 7.8 13.0 0.00 0.00 0.00 46 1019.9
20260902194002 66 238 8.7 13.9 0.00 0.00 0.00 47 1020.1
20260902193502 65 241 9.6 13.9 0.00 0.00 0.00 47 1019.9
20260902193003 65 235 8.7 14.8 0.00 0.00 0.00 47 1020.1
20260902192502 65 236 9.6 14.8 0.00 0.00 0.00 47 1020.0
20260902192003 65 243 10.4 14.8 0.00 0.00 0.00 48 1020.1
20260902191002 65 240 10.4 16.5 0.00 0.00 0.00 48 1020.1
20260902190502 65 237 10.4 16.5 0.00 0.00 0.00 48 1020.0
20260902190003 65 234 9.6 15.6 0.00 0.00 0.00 48 1020.0
20260902185002 65 235 9.6 13.0 0.00 0.00 0.00 48 1019.9
20260902184503 65 237 9.6 16.5 0.00 0.00 0.00 49 1019.9
20260902184002 64 237 9.6 14.8 0.00 0.00 0.00 49 1020.0
20260902183503 64 237 9.6 15.6 0.00 0.00 0.00 49 1019.9
20260902183002 64 241 9.6 12.2 0.00 0.00 0.00 48 1019.8
20260902182502 64 236 9.6 15.6 0.00 0.00 0.00 48 1019.7
20260902182003 64 238 9.6 15.6 0.00 0.00 0.00 48 1019.8
20260902181502 64 242 10.4 18.2 0.00 0.00 0.00 48 1019.8
20260902181002 64 242 10.4 16.5 0.00 0.00 0.00 48 1019.8
20260902180503 64 244 9.6 14.8 0.00 0.00 0.00 48 1019.8
20260902180005 64 237 8.7 13.9 0.00 0.00 0.00 48 1019.8
20260902175502 64 243 9.6 16.5 0.00 0.00 0.00 48 1020.0
20260902175002 64 245 8.7 13.0 0.00 0.00 0.00 48 1019.9
20260902174503 64 248 7.8 16.5 0.00 0.00 0.00 47 1019.9
20260902173003 64 243 7.8 12.2 0.00 0.00 0.00 45 1019.8
20260902172502 64 241 7.8 11.3 0.00 0.00 0.00 44 1019.8
20260902172003 64 241 7.0 13.9 0.00 0.00 0.00 44 1019.8
20260902171502 64 238 6.1 11.3 0.00 0.00 0.00 44 1019.7
20260902171003 64 244 5.2 11.3 0.00 0.00 0.00 46 1019.8
20260902170502 63 248 4.3 11.3 0.00 0.00 0.00 46 1019.6
20260902170002 63 240 4.3 10.4 0.00 0.00 0.00 47 1019.6
20260902165503 63 241 4.3 8.7 0.00 0.00 0.00 48 1019.7
20260902165002 62 247 4.3 7.0 0.00 0.00 0.00 49 1019.8
20260902164502 62 240 4.3 7.8 0.00 0.00 0.00 50 1019.7
20260902164002 61 243 4.3 8.7 0.00 0.00 0.00 51 1019.7
20260902163503 61 243 4.3 5.2 0.00 0.00 0.00 51 1019.8
20260902163002 60 239 4.3 7.0 0.00 0.00 0.00 52 1019.7
20260902162502 60 238 3.5 8.7 0.00 0.00 0.00 53 1019.8
20260902162002 60 247 2.6 6.1 0.00 0.00 0.00 55 1019.8
20260902161503 59 241 1.7 7.0 0.00 0.00 0.00 56 1019.6
20260902161002 58 244 1.7 3.5 0.00 0.00 0.00 56 1019.7
20260902160502 58 249 1.7 7.0 0.00 0.00 0.00 56 1019.6
20260902160003 57 248 0.9 3.5 0.00 0.00 0.00 58 1019.6
20260902155502 56 246 0.0 1.7 0.00 0.00 0.00 61 1019.8
20260902155002 54 270 0.0 0.9 0.00 0.00 0.00 64 1019.9
20260902154502 53 299 0.0 0.9 0.00 0.00 0.00 67 1019.7
20260902154002 52 300 0.0 0.9 0.00 0.00 0.00 70 1019.8
20260902153502 51 299 0.0 0.9 0.00 0.00 0.00 72 1019.8
20260902153003 50 299 0.0 0.9 0.00 0.00 0.00 73 1019.7
20260902152502 50 299 0.0 0.9 0.00 0.00 0.00 74 1019.9
20260902152003 49 356 0.0 0.9 0.00 0.00 0.00 76 1019.9
20260902151002 47 0 0.0 0.0 0.00 0.00 0.00 78 1020.0
20260902150003 46 0 0.0 0.0 0.00 0.00 0.00 79 1020.0
20260902145502 46 0 0.0 0.0 0.00 0.00 0.00 79 1020.0
20260902144503 45 0 0.0 0.0 0.00 0.00 0.00 79 1020.0
20260902144002 45 0 0.0 0.0 0.00 0.00 0.00 79 1019.9
20260902143503 45 0 0.0 0.0 0.00 0.00 0.00 78 1019.9
20260902143002 45 0 0.0 0.0 0.00 0.00 0.00 78 1019.9
20260902142503 44 0 0.0 0.0 0.00 0.00 0.00 78 1019.8
20260902142003 44 0 0.0 0.0 0.00 0.00 0.00 77 1019.7
20260902141502 44 0 0.0 0.0 0.00 0.00 0.00 77 1019.7
20260902141002 44 0 0.0 0.0 0.00 0.00 0.00 76 1019.6
20260902140503 44 6 0.0 0.9 0.00 0.00 0.00 76 1019.7
20260902140003 44 6 0.0 0.9 0.00 0.00 0.00 75 1019.6
20260902135003 44 0 0.0 0.0 0.00 0.00 0.00 74 1019.5
20260902134502 44 0 0.0 0.0 0.00 0.00 0.00 73 1019.7
20260902134003 45 0 0.0 0.0 0.00 0.00 0.00 73 1019.7
20260902133503 45 0 0.0 0.0 0.00 0.00 0.00 72 1019.6
20260902133003 45 0 0.0 0.0 0.00 0.00 0.00 72 1019.5
20260902132502 45 0 0.0 0.0 0.00 0.00 0.00 72 1019.4
20260902132003 45 0 0.0 0.0 0.00 0.00 0.00 72 1019.4
20260902131502 45 0 0.0 0.0 0.00 0.00 0.00 71 1019.3
20260902130503 46 0 0.0 0.0 0.00 0.00 0.00 72 1019.3
20260902130003 46 0 0.0 0.0 0.00 0.00 0.00 71 1019.2
20260902125503 46 0 0.0 0.0 0.00 0.00 0.00 69 1019.3
20260902125002 46 0 0.0 0.0 0.00 0.00 0.00 69 1019.2
20260902124503 47 0 0.0 0.0 0.00 0.00 0.00 68 1019.1
20260902124002 47 303 0.0 0.9 0.00 0.00 0.00 68 1019.1
20260902123502 47 0 0.0 0.0 0.00 0.00 0.00 68 1019.2
20260902123003 47 0 0.0 0.0 0.00 0.00 0.00 68 1019.2
20260902122502 48 0 0.0 0.0 0.00 0.00 0.00 67 1019.3
20260902122003 48 0 0.0 0.0 0.00 0.00 0.00 68 1019.3
20260902121503 48 303 0.0 0.9 0.00 0.00 0.00 69 1019.2
20260902121002 48 0 0.0 0.0 0.00 0.00 0.00 68 1019.2
20260902120503 48 0 0.0 0.0 0.00 0.00 0.00 69 1019.2
20260902115503 48 0 0.0 0.0 0.00 0.00 0.00 68 1019.2
20260902115003 49 303 0.0 0.9 0.00 0.00 0.00 68 1019.2
20260902114502 49 303 0.0 0.9 0.00 0.00 0.00 67 1019.2
20260902114002 49 304 0.0 0.9 0.00 0.00 0.00 67 1019.2
20260902113503 49 304 0.0 1.7 0.00 0.00 0.00 66 1019.2
20260902113003 49 302 0.0 0.9 0.00 0.00 0.00 66 1019.2
20260902112503 49 292 0.0 0.9 0.00 0.00 0.00 65 1019.3
20260902112003 50 289 0.0 0.9 0.00 0.00 0.00 64 1019.3
20260902111502 50 289 0.0 0.9 0.00 0.00 0.00 63 1019.3
20260902111003 51 283 0.0 1.7 0.00 0.00 0.00 62 1019.3
20260902110503 51 0 0.0 0.0 0.00 0.00 0.00 61 1019.3
20260902110003 52 271 0.0 0.9 0.00 0.00 0.00 60 1019.3
20260902105502 52 0 0.0 0.0 0.00 0.00 0.00 59 1019.3
20260902105003 52 0 0.0 0.0 0.00 0.00 0.00 59 1019.2
20260902104502 53 267 0.0 0.9 0.00 0.00 0.00 58 1019.2
20260902104002 53 0 0.0 0.0 0.00 0.00 0.00 58 1019.2
20260902103503 53 267 0.0 0.9 0.00 0.00 0.00 57 1019.2
20260902103003 54 0 0.0 0.0 0.00 0.00 0.00 56 1019.2
20260902102502 54 267 0.0 0.9 0.00 0.00 0.00 56 1019.2
20260902102002 54 182 0.9 0.9 0.00 0.00 0.00 55 1019.2
20260902101002 55 139 1.7 2.6 0.00 0.00 0.00 58 1019.2
20260902100503 55 145 1.7 4.3 0.00 0.00 0.00 57 1019.2
20260902095003 55 122 2.6 5.2 0.00 0.00 0.00 53 1019.2
20260902093503 55 118 2.6 2.6 0.00 0.00 0.00 53 1019.3
20260902093003 55 128 1.7 6.1 0.00 0.00 0.00 53 1019.4
20260902092503 56 123 1.7 6.1 0.00 0.00 0.00 54 1019.4
20260902092003 56 107 1.7 2.6 0.00 0.00 0.00 55 1019.5
20260902091502 56 101 1.7 5.2 0.00 0.00 0.00 56 1019.4
20260902091003 56 95 0.9 3.5 0.00 0.00 0.00 55 1019.5
20260902090004 57 104 0.0 1.7 0.00 0.00 0.00 56 1019.6
20260902085503 57 184 0.0 0.9 0.00 0.00 0.00 56 1019.7
20260902085003 57 187 0.0 0.9 0.00 0.00 0.00 56 1019.7
20260902084503 57 0 0.9 0.0 0.00 0.00 0.00 56 1019.7
20260902084003 57 177 0.9 2.6 0.00 0.00 0.00 56 1019.7
20260902083503 57 157 0.9 4.3 0.00 0.00 0.00 56 1019.7
20260902083003 57 156 0.9 4.3 0.00 0.00 0.00 55 1019.6
20260902082002 58 170 0.0 0.9 0.00 0.00 0.00 54 1019.6
20260902081503 58 0 0.0 0.0 0.00 0.00 0.00 53 1019.6
20260902081003 58 173 0.0 0.9 0.00 0.00 0.00 53 1019.5
20260902080502 58 173 0.0 0.9 0.00 0.00 0.00 53 1019.6
20260902080003 58 170 0.9 1.7 0.00 0.00 0.00 53 1019.5
20260902075503 58 148 1.7 2.6 0.00 0.00 0.00 53 1019.4
20260902075003 58 138 1.7 4.3 0.00 0.00 0.00 53 1019.4
20260902074503 58 140 0.9 7.0 0.00 0.00 0.00 53 1019.3
20260902074002 58 116 0.9 1.7 0.00 0.00 0.00 54 1019.4
20260902073503 58 101 0.9 2.6 0.00 0.00 0.00 53 1019.3
20260902073003 58 137 0.0 3.5 0.00 0.00 0.00 53 1019.3
20260902072502 59 117 0.0 2.6 0.00 0.00 0.00 52 1019.2
20260902072003 59 143 0.0 1.7 0.00 0.00 0.00 52 1019.2
20260902071503 59 0 0.0 0.0 0.00 0.00 0.00 51 1019.2
20260902071003 59 0 0.0 0.0 0.00 0.00 0.00 51 1019.2
20260902065503 59 148 1.7 4.3 0.00 0.00 0.00 51 1019.2
20260902065004 60 147 0.9 2.6 0.00 0.00 0.00 51 1019.2
20260902064503 60 147 0.9 3.5 0.00 0.00 0.00 50 1019.1